Location: *
(38.4303°S, 157.0822°W)
Time: 07:41:51
(UTC+00:00)

DMSP B5D2-2 - Pass Details

Date: 05 August 2024
Orbit: 787 x 802 km, 98.3° (Epoch: 15 September)

Event Time Altitude Azimuth Distance (km) Brightness Sun altitude
Rises 13:28:14 0° 141° (SE) 3,343 7.9 -46.3°
Reaches altitude 10° 13:33:45 10° 94° (E) 2,392 7.1 -45.3°
Maximum altitude 13:33:58 10° 92° (E) 2,389 7.1 -45.3°
Drops below altitude 10° 13:34:11 10° 89° (E) 2,390 7.1 -45.2°
Enters shadow 13:35:38 - 74° (ENE) 2,477 7.1 -44.9°
